Time,TemperatureF,DewpointF,PressureIn,WindDirection,WindDirectionDegrees,WindSpeedMPH,WindSpeedGustMPH,Humidity,HourlyPrecipIn,Conditions,Clouds,dailyrainin,SoftwareType,DateUTC
2013-07-17 00:00:00,58.8,49.8,30.12,SW,225,2.7,4.5,72,0.00,,---,0.00,VWS V14.01,2013-07-17 07:00:00,
2013-07-17 00:10:00,58.6,49.7,30.12,WSW,248,0.0,1.3,72,0.00,,---,0.00,VWS V14.01,2013-07-17 07:10:00,
2013-07-17 00:15:00,58.6,49.7,30.12,SSW,202,2.5,2.9,72,0.00,,---,0.00,VWS V14.01,2013-07-17 07:15:00,
2013-07-17 00:20:00,58.6,50.0,30.09,WSW,248,2.9,4.0,73,0.00,,---,0.00,VWS V14.01,2013-07-17 07:20:00,
2013-07-17 00:30:00,58.5,49.5,30.09,WNW,292,2.0,2.5,72,0.00,,---,0.00,VWS V14.01,2013-07-17 07:30:00,
2013-07-17 00:40:00,58.5,49.8,30.09,WSW,248,2.5,3.6,73,0.00,,---,0.00,VWS V14.01,2013-07-17 07:40:00,
2013-07-17 00:45:00,58.5,49.8,30.09,WSW,248,0.9,3.6,73,0.00,,---,0.00,VWS V14.01,2013-07-17 07:45:00,
2013-07-17 00:55:00,58.5,49.5,30.12,WSW,248,0.0,2.0,72,0.00,,---,0.00,VWS V14.01,2013-07-17 07:55:00,
2013-07-17 01:00:00,58.5,49.5,30.12,NW,315,0.0,3.1,72,0.00,,---,0.00,VWS V14.01,2013-07-17 08:00:00,
2013-07-17 01:05:00,58.5,49.5,30.12,WSW,248,0.0,2.2,72,0.00,,---,0.00,VWS V14.01,2013-07-17 08:05:00,
2013-07-17 01:15:00,58.5,49.8,30.12,ENE,68,3.4,5.8,73,0.00,,---,0.00,VWS V14.01,2013-07-17 08:15:00,
2013-07-17 01:20:00,58.3,49.7,30.12,West,270,1.3,6.3,73,0.00,,---,0.00,VWS V14.01,2013-07-17 08:20:00,
2013-07-17 01:30:00,58.3,49.7,30.12,SSW,202,0.0,3.8,73,0.00,,---,0.00,VWS V14.01,2013-07-17 08:30:00,
2013-07-17 01:40:00,58.3,49.7,30.12,WNW,292,0.0,3.6,73,0.00,,---,0.00,VWS V14.01,2013-07-17 08:40:00,
2013-07-17 01:45:00,58.3,49.7,30.12,WSW,248,0.0,1.1,73,0.00,,---,0.00,VWS V14.01,2013-07-17 08:45:00,
2013-07-17 01:55:00,58.3,50.0,30.12,WSW,248,1.6,6.3,74,0.00,,---,0.00,VWS V14.01,2013-07-17 08:55:00,
2013-07-17 02:05:00,58.3,50.0,30.12,WSW,248,1.1,4.0,74,0.00,,---,0.00,VWS V14.01,2013-07-17 09:05:00,
2013-07-17 02:15:00,58.1,49.9,30.12,WSW,248,2.2,4.9,74,0.00,,---,0.00,VWS V14.01,2013-07-17 09:15:00,
2013-07-17 02:25:00,58.1,49.9,30.12,WSW,248,1.6,3.8,74,0.00,,---,0.00,VWS V14.01,2013-07-17 09:25:00,
2013-07-17 02:30:00,58.1,49.9,30.12,SSE,158,2.2,4.3,74,0.00,,---,0.00,VWS V14.01,2013-07-17 09:30:00,
2013-07-17 02:40:00,58.1,49.9,30.09,West,270,0.0,2.5,74,0.00,,---,0.00,VWS V14.01,2013-07-17 09:40:00,
2013-07-17 02:45:00,58.1,49.9,30.09,WSW,248,0.0,3.1,74,0.00,,---,0.00,VWS V14.01,2013-07-17 09:45:00,
2013-07-17 02:50:00,58.1,49.9,30.12,South,180,0.0,1.6,74,0.00,,---,0.00,VWS V14.01,2013-07-17 09:50:00,
2013-07-17 03:00:00,58.1,50.2,30.12,WSW,248,2.5,3.8,75,0.00,,---,0.00,VWS V14.01,2013-07-17 10:00:00,
2013-07-17 03:10:00,57.9,50.0,30.09,WSW,248,0.0,4.5,75,0.00,,---,0.00,VWS V14.01,2013-07-17 10:10:00,
2013-07-17 03:15:00,57.9,50.4,30.09,WSW,248,2.0,4.9,76,0.00,,---,0.00,VWS V14.01,2013-07-17 10:15:00,
2013-07-17 03:25:00,57.9,50.4,30.09,WSW,248,2.9,3.8,76,0.00,,---,0.00,VWS V14.01,2013-07-17 10:25:00,
2013-07-17 03:35:00,57.9,50.4,30.12,SSW,202,2.5,5.4,76,0.00,,---,0.00,VWS V14.01,2013-07-17 10:35:00,
2013-07-17 03:40:00,57.9,50.4,30.12,SW,225,0.0,4.0,76,0.00,,---,0.00,VWS V14.01,2013-07-17 10:40:00,
2013-07-17 03:50:00,57.9,50.4,30.12,SW,225,1.1,2.7,76,0.00,,---,0.00,VWS V14.01,2013-07-17 10:50:00,
2013-07-17 03:55:00,57.9,50.8,30.12,West,270,3.6,3.6,77,0.00,,---,0.00,VWS V14.01,2013-07-17 10:55:00,
2013-07-17 04:00:00,57.7,50.9,30.12,WSW,248,0.0,5.4,78,0.00,,---,0.00,VWS V14.01,2013-07-17 11:00:00,
2013-07-17 04:10:00,57.7,50.9,30.12,NW,315,0.0,5.8,78,0.00,,---,0.00,VWS V14.01,2013-07-17 11:10:00,
2013-07-17 04:15:00,57.7,50.6,30.12,WSW,248,0.0,2.7,77,0.00,,---,0.00,VWS V14.01,2013-07-17 11:15:00,
2013-07-17 04:25:00,57.6,50.4,30.12,West,270,0.0,3.1,77,0.00,,---,0.00,VWS V14.01,2013-07-17 11:25:00,
2013-07-17 04:30:00,57.6,50.4,30.12,WSW,248,2.9,3.4,77,0.00,,---,0.00,VWS V14.01,2013-07-17 11:30:00,
2013-07-17 04:40:00,57.7,50.9,30.12,North,0,0.0,3.6,78,0.00,,---,0.00,VWS V14.01,2013-07-17 11:40:00,
2013-07-17 04:50:00,57.6,51.1,30.12,WSW,248,2.5,4.9,79,0.00,,---,0.00,VWS V14.01,2013-07-17 11:50:00,
2013-07-17 05:00:00,57.6,51.1,30.12,SSW,202,0.0,3.4,79,0.00,,---,0.00,VWS V14.01,2013-07-17 12:00:00,
2013-07-17 05:10:00,57.6,51.1,30.09,WNW,292,0.0,3.4,79,0.00,,---,0.00,VWS V14.01,2013-07-17 12:10:00,
2013-07-17 05:15:00,57.6,51.1,30.09,WNW,292,0.0,3.8,79,0.00,,---,0.00,VWS V14.01,2013-07-17 12:15:00,
2013-07-17 05:25:00,57.4,51.3,30.12,WSW,248,0.0,3.8,80,0.00,,---,0.00,VWS V14.01,2013-07-17 12:25:00,
2013-07-17 05:35:00,57.6,51.5,30.12,SSW,202,0.0,2.5,80,0.00,,---,0.00,VWS V14.01,2013-07-17 12:35:00,
2013-07-17 05:40:00,57.6,51.1,30.12,SSW,202,4.3,4.5,79,0.00,,---,0.00,VWS V14.01,2013-07-17 12:40:00,
2013-07-17 05:45:00,57.4,51.3,30.12,West,270,2.5,4.3,80,0.00,,---,0.00,VWS V14.01,2013-07-17 12:45:00,
2013-07-17 05:55:00,57.4,51.3,30.12,South,180,2.9,3.8,80,0.00,,---,0.00,VWS V14.01,2013-07-17 12:55:00,
2013-07-17 06:00:00,57.4,51.3,30.12,SW,225,0.0,3.4,80,0.00,,---,0.00,VWS V14.01,2013-07-17 13:00:00,
2013-07-17 06:10:00,57.4,51.6,30.15,SSW,202,0.0,3.1,81,0.00,,---,0.00,VWS V14.01,2013-07-17 13:10:00,
2013-07-17 06:15:00,57.4,51.6,30.15,WSW,248,0.0,3.1,81,0.00,,---,0.00,VWS V14.01,2013-07-17 13:15:00,
2013-07-17 06:25:00,57.4,51.3,30.12,WSW,248,3.4,3.4,80,0.00,,---,0.00,VWS V14.01,2013-07-17 13:25:00,
2013-07-17 06:35:00,57.4,51.6,30.15,WSW,248,0.9,3.8,81,0.00,,---,0.00,VWS V14.01,2013-07-17 13:35:00,
2013-07-17 06:40:00,57.4,51.6,30.15,WNW,292,1.1,3.6,81,0.00,,---,0.00,VWS V14.01,2013-07-17 13:40:00,
2013-07-17 06:45:00,57.4,51.6,30.15,West,270,3.4,3.6,81,0.00,,---,0.00,VWS V14.01,2013-07-17 13:45:00,
2013-07-17 06:50:00,57.4,51.6,30.15,WSW,248,0.0,3.6,81,0.00,,---,0.00,VWS V14.01,2013-07-17 13:50:00,
2013-07-17 07:00:00,57.6,51.8,30.15,SW,225,3.4,3.8,81,0.00,,---,0.00,VWS V14.01,2013-07-17 14:00:00,
2013-07-17 07:10:00,57.4,51.6,30.15,WNW,292,0.0,4.3,81,0.00,,---,0.00,VWS V14.01,2013-07-17 14:10:00,
2013-07-17 07:20:00,57.6,51.8,30.15,WNW,292,3.1,4.0,81,0.00,,---,0.00,VWS V14.01,2013-07-17 14:20:00,
2013-07-17 07:25:00,57.6,51.5,30.15,SSW,202,1.6,4.0,80,0.00,,---,0.00,VWS V14.01,2013-07-17 14:25:00,
2013-07-17 07:35:00,57.7,51.6,30.15,NNE,22,0.0,2.9,80,0.00,,---,0.00,VWS V14.01,2013-07-17 14:35:00,
2013-07-17 07:40:00,57.7,51.6,30.15,SSE,158,0.9,3.4,80,0.00,,---,0.00,VWS V14.01,2013-07-17 14:40:00,
2013-07-17 07:45:00,57.9,51.5,30.15,West,270,0.0,2.5,79,0.00,,---,0.00,VWS V14.01,2013-07-17 14:45:00,
2013-07-17 07:50:00,57.9,51.5,30.18,WSW,248,3.4,3.6,79,0.00,,---,0.00,VWS V14.01,2013-07-17 14:50:00,
2013-07-17 07:55:00,57.9,51.5,30.18,WSW,248,2.0,3.6,79,0.00,,---,0.00,VWS V14.01,2013-07-17 14:55:00,
2013-07-17 08:05:00,58.3,51.8,30.18,NNW,338,0.0,1.6,79,0.00,,---,0.00,VWS V14.01,2013-07-17 15:05:00,
2013-07-17 08:10:00,58.3,51.5,30.18,SW,225,2.9,4.3,78,0.00,,---,0.00,VWS V14.01,2013-07-17 15:10:00,
2013-07-17 08:20:00,58.6,51.8,30.18,WSW,248,0.0,1.3,78,0.00,,---,0.00,VWS V14.01,2013-07-17 15:20:00,
2013-07-17 08:25:00,58.6,51.5,30.18,WSW,248,1.1,3.1,77,0.00,,---,0.00,VWS V14.01,2013-07-17 15:25:00,
2013-07-17 08:30:00,58.6,51.5,30.18,WSW,248,0.0,3.8,77,0.00,,---,0.00,VWS V14.01,2013-07-17 15:30:00,
2013-07-17 08:40:00,59.2,51.6,30.18,WSW,248,0.0,3.8,76,0.00,,---,0.00,VWS V14.01,2013-07-17 15:40:00,
2013-07-17 08:45:00,59.2,51.6,30.18,WSW,248,1.6,2.9,76,0.00,,---,0.00,VWS V14.01,2013-07-17 15:45:00,
2013-07-17 08:50:00,59.0,50.7,30.18,SW,225,1.1,3.4,74,0.00,,---,0.00,VWS V14.01,2013-07-17 15:50:00,
2013-07-17 08:55:00,59.2,50.9,30.18,SW,225,0.0,3.4,74,0.00,,---,0.00,VWS V14.01,2013-07-17 15:55:00,
2013-07-17 09:05:00,59.4,51.1,30.15,WSW,248,2.7,4.9,74,0.00,,---,0.00,VWS V14.01,2013-07-17 16:05:00,
2013-07-17 09:10:00,59.5,51.3,30.15,WSW,248,0.0,3.1,74,0.00,,---,0.00,VWS V14.01,2013-07-17 16:10:00,
2013-07-17 09:15:00,59.9,51.6,30.15,NNW,338,0.9,1.6,74,0.00,,---,0.00,VWS V14.01,2013-07-17 16:15:00,
2013-07-17 09:25:00,60.1,51.4,30.18,WSW,248,2.9,3.4,73,0.00,,---,0.00,VWS V14.01,2013-07-17 16:25:00,
2013-07-17 09:30:00,60.1,51.0,30.18,West,270,0.0,4.9,72,0.00,,---,0.00,VWS V14.01,2013-07-17 16:30:00,
2013-07-17 09:40:00,60.4,51.4,30.15,WNW,292,0.0,4.0,72,0.00,,---,0.00,VWS V14.01,2013-07-17 16:40:00,
2013-07-17 09:50:00,60.6,50.8,30.18,SSW,202,1.6,5.8,70,0.00,,---,0.00,VWS V14.01,2013-07-17 16:50:00,
2013-07-17 09:55:00,60.8,51.0,30.18,SSE,158,1.6,4.7,70,0.00,,---,0.00,VWS V14.01,2013-07-17 16:55:00,
2013-07-17 10:00:00,61.3,51.9,30.18,WSW,248,0.0,3.1,71,0.00,,---,0.00,VWS V14.01,2013-07-17 17:00:00,
2013-07-17 10:05:00,61.5,51.3,30.18,WSW,248,3.4,3.4,69,0.00,,---,0.00,VWS V14.01,2013-07-17 17:05:00,
2013-07-17 10:10:00,61.7,51.4,30.18,ESE,112,2.5,3.8,69,0.00,,---,0.00,VWS V14.01,2013-07-17 17:10:00,
2013-07-17 10:15:00,62.2,52.0,30.18,SW,225,2.2,3.6,69,0.00,,---,0.00,VWS V14.01,2013-07-17 17:15:00,
2013-07-17 10:25:00,62.6,51.1,30.18,SW,225,0.0,3.6,66,0.00,,---,0.00,VWS V14.01,2013-07-17 17:25:00,
2013-07-17 10:30:00,63.1,51.2,30.18,ESE,112,0.0,4.0,65,0.00,,---,0.00,VWS V14.01,2013-07-17 17:30:00,
2013-07-17 10:40:00,63.9,51.0,30.18,NW,315,2.0,3.8,63,0.00,,---,0.00,VWS V14.01,2013-07-17 17:40:00,
2013-07-17 10:50:00,64.8,51.5,30.18,WSW,248,1.1,4.9,62,0.00,,---,0.00,VWS V14.01,2013-07-17 17:50:00,
2013-07-17 11:00:00,67.6,51.9,30.18,WSW,248,3.4,3.8,57,0.00,,---,0.00,VWS V14.01,2013-07-17 18:00:00,
2013-07-17 11:05:00,68.0,49.7,30.18,WSW,248,2.5,4.3,52,0.00,,---,0.00,VWS V14.01,2013-07-17 18:05:00,
2013-07-17 11:15:00,68.2,49.9,30.18,West,270,2.0,3.6,52,0.00,,---,0.00,VWS V14.01,2013-07-17 18:15:00,
2013-07-17 11:25:00,70.3,50.8,30.18,SSW,202,0.9,4.0,50,0.00,,---,0.00,VWS V14.01,2013-07-17 18:25:00,
2013-07-17 11:30:00,72.1,50.8,30.18,NW,315,0.9,3.8,47,0.00,,---,0.00,VWS V14.01,2013-07-17 18:30:00,
2013-07-17 11:35:00,72.9,50.3,30.18,WSW,248,0.0,7.2,45,0.00,,---,0.00,VWS V14.01,2013-07-17 18:35:00,
2013-07-17 11:40:00,74.1,49.6,30.18,East,90,2.2,4.3,42,0.00,,---,0.00,VWS V14.01,2013-07-17 18:40:00,
2013-07-17 11:50:00,73.2,47.5,30.18,SSW,202,3.4,4.9,40,0.00,,---,0.00,VWS V14.01,2013-07-17 18:50:00,
2013-07-17 12:00:00,75.2,49.2,30.18,WSW,248,2.7,3.8,40,0.00,,---,0.00,VWS V14.01,2013-07-17 19:00:00,
2013-07-17 12:10:00,75.2,47.2,30.18,SSW,202,0.0,8.5,37,0.00,,---,0.00,VWS V14.01,2013-07-17 19:10:00,
2013-07-17 12:15:00,75.7,48.4,30.18,WSW,248,3.1,6.5,38,0.00,,---,0.00,VWS V14.01,2013-07-17 19:15:00,
2013-07-17 12:25:00,73.6,45.7,30.18,WSW,248,5.4,10.1,37,0.00,,---,0.00,VWS V14.01,2013-07-17 19:25:00,
2013-07-17 12:30:00,73.2,47.5,30.18,SSW,202,2.5,6.3,40,0.00,,---,0.00,VWS V14.01,2013-07-17 19:30:00,
2013-07-17 12:35:00,73.8,47.3,30.15,North,0,3.1,6.5,39,0.00,,---,0.00,VWS V14.01,2013-07-17 19:35:00,
2013-07-17 12:40:00,75.4,48.0,30.15,WSW,248,3.6,4.3,38,0.00,,---,0.00,VWS V14.01,2013-07-17 19:40:00,
2013-07-17 12:45:00,74.7,46.7,30.15,SSE,158,3.1,7.2,37,0.00,,---,0.00,VWS V14.01,2013-07-17 19:45:00,
2013-07-17 12:55:00,74.1,46.9,30.15,WSW,248,5.6,6.3,38,0.00,,---,0.00,VWS V14.01,2013-07-17 19:55:00,
2013-07-17 13:00:00,74.7,47.4,30.15,WSW,248,5.8,7.8,38,0.00,,---,0.00,VWS V14.01,2013-07-17 20:00:00,
2013-07-17 13:05:00,74.7,47.4,30.15,SW,225,2.9,7.4,38,0.00,,---,0.00,VWS V14.01,2013-07-17 20:05:00,
2013-07-17 13:10:00,75.2,47.2,30.15,WSW,248,3.8,7.2,37,0.00,,---,0.00,VWS V14.01,2013-07-17 20:10:00,
2013-07-17 13:15:00,76.5,48.3,30.15,SSW,202,3.4,5.8,37,0.00,,---,0.00,VWS V14.01,2013-07-17 20:15:00,
2013-07-17 13:20:00,75.4,45.9,30.18,West,270,4.3,6.9,35,0.00,,---,0.00,VWS V14.01,2013-07-17 20:20:00,
2013-07-17 13:25:00,76.6,47.7,30.18,SSW,202,4.0,4.3,36,0.00,,---,0.00,VWS V14.01,2013-07-17 20:25:00,
2013-07-17 13:30:00,75.7,46.2,30.18,WNW,292,2.2,8.1,35,0.00,,---,0.00,VWS V14.01,2013-07-17 20:30:00,
2013-07-17 13:40:00,77.7,47.1,30.18,WSW,248,2.9,4.7,34,0.00,,---,0.00,VWS V14.01,2013-07-17 20:40:00,
2013-07-17 13:45:00,78.1,47.5,30.18,SSW,202,2.5,4.9,34,0.00,,---,0.00,VWS V14.01,2013-07-17 20:45:00,
2013-07-17 13:50:00,77.7,46.3,30.18,WSW,248,3.4,4.3,33,0.00,,---,0.00,VWS V14.01,2013-07-17 20:50:00,
2013-07-17 13:55:00,77.5,46.2,30.18,SW,225,5.4,5.4,33,0.00,,---,0.00,VWS V14.01,2013-07-17 20:55:00,
2013-07-17 14:00:00,77.2,45.9,30.18,WSW,248,0.0,5.6,33,0.00,,---,0.00,VWS V14.01,2013-07-17 21:00:00,
2013-07-17 14:05:00,78.3,46.8,30.18,SSW,202,1.1,6.9,33,0.00,,---,0.00,VWS V14.01,2013-07-17 21:05:00,
2013-07-17 14:10:00,79.0,46.6,30.18,SSW,202,3.1,5.8,32,0.00,,---,0.00,VWS V14.01,2013-07-17 21:10:00,
2013-07-17 14:15:00,78.4,46.2,30.18,WSW,248,3.8,5.6,32,0.00,,---,0.00,VWS V14.01,2013-07-17 21:15:00,
2013-07-17 14:25:00,81.5,48.0,30.18,NW,315,1.1,4.3,31,0.00,,---,0.00,VWS V14.01,2013-07-17 21:25:00,
2013-07-17 14:30:00,81.7,47.3,30.18,NW,315,3.4,7.6,30,0.00,,---,0.00,VWS V14.01,2013-07-17 21:30:00,
2013-07-17 14:40:00,80.8,46.5,30.18,South,180,2.0,6.5,30,0.00,,---,0.00,VWS V14.01,2013-07-17 21:40:00,
2013-07-17 14:45:00,81.9,47.4,30.18,WSW,248,2.5,3.4,30,0.00,,---,0.00,VWS V14.01,2013-07-17 21:45:00,
2013-07-17 14:50:00,81.3,47.0,30.18,WSW,248,4.5,6.5,30,0.00,,---,0.00,VWS V14.01,2013-07-17 21:50:00,
2013-07-17 14:55:00,81.5,46.2,30.18,SSW,202,2.9,6.3,29,0.00,,---,0.00,VWS V14.01,2013-07-17 21:55:00,
2013-07-17 15:00:00,81.5,46.2,30.18,WSW,248,2.5,4.7,29,0.00,,---,0.00,VWS V14.01,2013-07-17 22:00:00,
2013-07-17 15:05:00,82.0,46.7,30.18,WSW,248,4.0,4.9,29,0.00,,---,0.00,VWS V14.01,2013-07-17 22:05:00,
2013-07-17 15:10:00,81.9,46.5,30.18,NNW,338,4.3,6.3,29,0.00,,---,0.00,VWS V14.01,2013-07-17 22:10:00,
2013-07-17 15:15:00,80.4,46.2,30.18,WSW,248,4.3,9.0,30,0.00,,---,0.00,VWS V14.01,2013-07-17 22:15:00,
2013-07-17 15:20:00,80.2,46.0,30.18,WSW,248,4.7,5.8,30,0.00,,---,0.00,VWS V14.01,2013-07-17 22:20:00,
2013-07-17 15:25:00,81.9,47.4,30.18,SSW,202,3.6,4.7,30,0.00,,---,0.00,VWS V14.01,2013-07-17 22:25:00,
2013-07-17 15:30:00,81.0,46.6,30.18,WSW,248,2.5,6.9,30,0.00,,---,0.00,VWS V14.01,2013-07-17 22:30:00,
2013-07-17 15:35:00,81.1,45.9,30.15,WSW,248,4.9,8.7,29,0.00,,---,0.00,VWS V14.01,2013-07-17 22:35:00,
2013-07-17 15:40:00,82.8,47.3,30.15,East,90,3.6,5.4,29,0.00,,---,0.00,VWS V14.01,2013-07-17 22:40:00,
2013-07-17 15:45:00,83.3,47.8,30.15,NE,45,1.1,3.6,29,0.00,,---,0.00,VWS V14.01,2013-07-17 22:45:00,
2013-07-17 15:55:00,83.7,46.2,30.15,WNW,292,1.1,5.6,27,0.00,,---,0.00,VWS V14.01,2013-07-17 22:55:00,
2013-07-17 16:00:00,83.1,44.7,30.15,WSW,248,2.7,5.8,26,0.00,,---,0.00,VWS V14.01,2013-07-17 23:00:00,
2013-07-17 16:05:00,82.2,45.9,30.15,WSW,248,2.9,6.5,28,0.00,,---,0.00,VWS V14.01,2013-07-17 23:05:00,
2013-07-17 16:10:00,82.6,45.2,30.15,West,270,2.9,7.2,27,0.00,,---,0.00,VWS V14.01,2013-07-17 23:10:00,
2013-07-17 16:15:00,81.9,44.6,30.15,SW,225,2.9,5.4,27,0.00,,---,0.00,VWS V14.01,2013-07-17 23:15:00,
2013-07-17 16:20:00,81.7,46.4,30.15,West,270,4.3,7.8,29,0.00,,---,0.00,VWS V14.01,2013-07-17 23:20:00,
2013-07-17 16:25:00,81.9,46.5,30.15,SW,225,4.0,4.5,29,0.00,,---,0.00,VWS V14.01,2013-07-17 23:25:00,
2013-07-17 16:30:00,82.4,46.1,30.15,SW,225,2.7,4.3,28,0.00,,---,0.00,VWS V14.01,2013-07-17 23:30:00,
2013-07-17 16:35:00,81.0,44.8,30.15,SSW,202,2.9,10.7,28,0.00,,---,0.00,VWS V14.01,2013-07-17 23:35:00,
2013-07-17 16:40:00,81.3,46.1,30.15,SW,225,3.6,5.8,29,0.00,,---,0.00,VWS V14.01,2013-07-17 23:40:00,
2013-07-17 16:50:00,81.0,44.8,30.15,ENE,68,3.1,6.0,28,0.00,,---,0.00,VWS V14.01,2013-07-17 23:50:00,
2013-07-17 16:55:00,81.9,45.6,30.15,SW,225,2.7,9.0,28,0.00,,---,0.00,VWS V14.01,2013-07-17 23:55:00,
2013-07-17 17:00:00,81.0,45.8,30.15,WSW,248,1.1,5.6,29,0.00,,---,0.00,VWS V14.01,2013-07-18 00:00:00,
2013-07-17 17:05:00,80.8,45.6,30.15,NNW,338,2.0,7.2,29,0.00,,---,0.00,VWS V14.01,2013-07-18 00:05:00,
2013-07-17 17:10:00,81.5,46.2,30.15,SSE,158,3.4,3.4,29,0.00,,---,0.00,VWS V14.01,2013-07-18 00:10:00,
2013-07-17 17:15:00,81.3,46.1,30.15,SW,225,2.0,4.0,29,0.00,,---,0.00,VWS V14.01,2013-07-18 00:15:00,
2013-07-17 17:25:00,81.1,45.9,30.15,SSW,202,1.1,6.3,29,0.00,,---,0.00,VWS V14.01,2013-07-18 00:25:00,
2013-07-17 17:30:00,81.1,45.9,30.15,SW,225,3.1,4.3,29,0.00,,---,0.00,VWS V14.01,2013-07-18 00:30:00,
2013-07-17 17:35:00,80.6,44.5,30.12,WSW,248,2.0,4.9,28,0.00,,---,0.00,VWS V14.01,2013-07-18 00:35:00,
2013-07-17 17:40:00,80.1,45.0,30.12,North,0,1.3,5.4,29,0.00,,---,0.00,VWS V14.01,2013-07-18 00:40:00,
2013-07-17 17:45:00,80.1,45.9,30.12,NNW,338,2.7,6.0,30,0.00,,---,0.00,VWS V14.01,2013-07-18 00:45:00,
2013-07-17 17:55:00,78.4,44.5,30.09,NNW,338,3.4,5.6,30,0.00,,---,0.00,VWS V14.01,2013-07-18 00:55:00,
2013-07-17 18:00:00,78.4,44.5,30.09,West,270,0.0,4.7,30,0.00,,---,0.00,VWS V14.01,2013-07-18 01:00:00,
2013-07-17 18:10:00,78.1,45.0,30.09,WSW,248,2.7,3.4,31,0.00,,---,0.00,VWS V14.01,2013-07-18 01:10:00,
2013-07-17 18:20:00,76.3,43.5,30.12,WNW,292,2.7,4.0,31,0.00,,---,0.00,VWS V14.01,2013-07-18 01:20:00,
2013-07-17 18:25:00,75.2,43.3,30.12,WSW,248,3.4,3.8,32,0.00,,---,0.00,VWS V14.01,2013-07-18 01:25:00,
2013-07-17 18:30:00,73.2,42.4,30.12,North,0,3.4,4.0,33,0.00,,---,0.00,VWS V14.01,2013-07-18 01:30:00,
2013-07-17 18:40:00,70.5,42.3,30.12,NW,315,0.9,3.8,36,0.00,,---,0.00,VWS V14.01,2013-07-18 01:40:00,
2013-07-17 18:45:00,69.4,43.4,30.12,WSW,248,1.1,3.1,39,0.00,,---,0.00,VWS V14.01,2013-07-18 01:45:00,
2013-07-17 18:55:00,67.5,44.8,30.12,NNW,338,3.1,4.0,44,0.00,,---,0.00,VWS V14.01,2013-07-18 01:55:00,
2013-07-17 19:00:00,66.6,44.6,30.12,West,270,1.1,5.6,45,0.00,,---,0.00,VWS V14.01,2013-07-18 02:00:00,
2013-07-17 19:05:00,65.8,45.1,30.12,SW,225,2.5,4.5,47,0.00,,---,0.00,VWS V14.01,2013-07-18 02:05:00,
2013-07-17 19:10:00,65.1,45.0,30.12,SW,225,2.5,3.6,48,0.00,,---,0.00,VWS V14.01,2013-07-18 02:10:00,
2013-07-17 19:15:00,64.6,45.5,30.12,WSW,248,2.0,3.6,50,0.00,,---,0.00,VWS V14.01,2013-07-18 02:15:00,
2013-07-17 19:25:00,64.0,46.1,30.12,WSW,248,1.1,4.9,52,0.00,,---,0.00,VWS V14.01,2013-07-18 02:25:00,
2013-07-17 19:30:00,63.5,45.6,30.12,North,0,2.0,4.7,52,0.00,,---,0.00,VWS V14.01,2013-07-18 02:30:00,
2013-07-17 19:40:00,62.6,46.2,30.12,NW,315,2.0,4.9,55,0.00,,---,0.00,VWS V14.01,2013-07-18 02:40:00,
2013-07-17 19:45:00,62.4,46.1,30.12,WNW,292,3.8,3.8,55,0.00,,---,0.00,VWS V14.01,2013-07-18 02:45:00,
2013-07-17 19:50:00,61.7,46.3,30.12,West,270,0.9,4.3,57,0.00,,---,0.00,VWS V14.01,2013-07-18 02:50:00,
2013-07-17 20:00:00,60.4,46.5,30.12,WSW,248,1.6,3.1,60,0.00,,---,0.00,VWS V14.01,2013-07-18 03:00:00,
2013-07-17 20:05:00,60.1,47.0,30.15,North,0,0.9,4.3,62,0.00,,---,0.00,VWS V14.01,2013-07-18 03:05:00,
2013-07-17 20:10:00,59.5,47.0,30.15,West,270,1.6,2.7,63,0.00,,---,0.00,VWS V14.01,2013-07-18 03:10:00,
2013-07-17 20:15:00,59.2,47.0,30.15,WSW,248,2.0,3.8,64,0.00,,---,0.00,VWS V14.01,2013-07-18 03:15:00,
2013-07-17 20:25:00,58.5,48.0,30.12,NNW,338,0.9,3.6,68,0.00,,---,0.00,VWS V14.01,2013-07-18 03:25:00,
2013-07-17 20:30:00,58.1,47.2,30.12,SW,225,0.0,2.2,67,0.00,,---,0.00,VWS V14.01,2013-07-18 03:30:00,
2013-07-17 20:35:00,57.9,47.4,30.12,NNW,338,0.0,2.7,68,0.00,,---,0.00,VWS V14.01,2013-07-18 03:35:00,
2013-07-17 20:40:00,57.4,47.3,30.12,SSE,158,0.0,1.6,69,0.00,,---,0.00,VWS V14.01,2013-07-18 03:40:00,
2013-07-17 20:45:00,57.2,46.8,30.12,SE,135,0.0,2.7,68,0.00,,---,0.00,VWS V14.01,2013-07-18 03:45:00,
2013-07-17 20:55:00,56.5,47.2,30.12,NNW,338,0.0,1.3,71,0.00,,---,0.00,VWS V14.01,2013-07-18 03:55:00,
2013-07-17 21:00:00,56.3,47.0,30.12,ESE,112,0.0,2.5,71,0.00,,---,0.00,VWS V14.01,2013-07-18 04:00:00,
2013-07-17 21:05:00,56.1,47.6,30.12,SSW,202,3.1,3.8,73,0.00,,---,0.00,VWS V14.01,2013-07-18 04:05:00,
2013-07-17 21:10:00,55.9,47.4,30.12,WSW,248,3.4,3.4,73,0.00,,---,0.00,VWS V14.01,2013-07-18 04:10:00,
2013-07-17 21:15:00,55.9,47.8,30.12,WSW,248,0.0,1.3,74,0.00,,---,0.00,VWS V14.01,2013-07-18 04:15:00,
2013-07-17 21:25:00,55.9,48.8,30.15,NE,45,1.3,2.9,77,0.00,,---,0.00,VWS V14.01,2013-07-18 04:25:00,
2013-07-17 21:30:00,56.1,49.4,30.15,NNE,22,2.5,4.7,78,0.00,,---,0.00,VWS V14.01,2013-07-18 04:30:00,
2013-07-17 21:35:00,56.3,49.5,30.15,SSE,158,0.0,2.5,78,0.00,,---,0.00,VWS V14.01,2013-07-18 04:35:00,
2013-07-17 21:40:00,56.3,49.5,30.15,SSW,202,2.2,2.2,78,0.00,,---,0.00,VWS V14.01,2013-07-18 04:40:00,
2013-07-17 21:45:00,56.5,49.7,30.15,NNW,338,0.0,2.2,78,0.00,,---,0.00,VWS V14.01,2013-07-18 04:45:00,
2013-07-17 21:50:00,56.7,49.9,30.15,WSW,248,0.0,0.9,78,0.00,,---,0.00,VWS V14.01,2013-07-18 04:50:00,
2013-07-17 22:00:00,56.7,49.9,30.15,West,270,2.0,2.5,78,0.00,,---,0.00,VWS V14.01,2013-07-18 05:00:00,
2013-07-17 22:05:00,56.7,50.2,30.15,WSW,248,2.9,3.8,79,0.00,,---,0.00,VWS V14.01,2013-07-18 05:05:00,
2013-07-17 22:10:00,56.7,50.2,30.15,NNW,338,2.0,2.9,79,0.00,,---,0.00,VWS V14.01,2013-07-18 05:10:00,
2013-07-17 22:15:00,56.5,50.1,30.15,West,270,0.0,2.7,79,0.00,,---,0.00,VWS V14.01,2013-07-18 05:15:00,
2013-07-17 22:20:00,56.5,50.1,30.15,WNW,292,1.1,2.5,79,0.00,,---,0.00,VWS V14.01,2013-07-18 05:20:00,
2013-07-17 22:25:00,56.5,50.4,30.15,WNW,292,1.1,2.5,80,0.00,,---,0.00,VWS V14.01,2013-07-18 05:25:00,
2013-07-17 22:30:00,56.3,49.9,30.15,NNW,338,1.6,2.5,79,0.00,,---,0.00,VWS V14.01,2013-07-18 05:30:00,
2013-07-17 22:40:00,56.5,50.1,30.15,NW,315,0.0,2.9,79,0.00,,---,0.00,VWS V14.01,2013-07-18 05:40:00,
2013-07-17 22:45:00,56.5,50.4,30.15,West,270,0.0,2.5,80,0.00,,---,0.00,VWS V14.01,2013-07-18 05:45:00,
2013-07-17 22:55:00,56.5,50.4,30.15,WSW,248,0.0,3.1,80,0.00,,---,0.00,VWS V14.01,2013-07-18 05:55:00,
2013-07-17 23:00:00,56.5,50.4,30.15,NNE,22,0.0,0.0,80,0.00,,---,0.00,VWS V14.01,2013-07-18 06:00:00,
2013-07-17 23:10:00,56.5,50.4,30.18,West,270,0.9,3.8,80,0.00,,---,0.00,VWS V14.01,2013-07-18 06:10:00,
2013-07-17 23:15:00,56.5,50.4,30.18,WSW,248,0.0,0.9,80,0.00,,---,0.00,VWS V14.01,2013-07-18 06:15:00,
2013-07-17 23:25:00,56.3,50.2,30.18,WSW,248,0.0,0.0,80,0.00,,---,0.00,VWS V14.01,2013-07-18 06:25:00,
2013-07-17 23:30:00,56.3,50.2,30.18,WSW,248,0.0,0.0,80,0.00,,---,0.00,VWS V14.01,2013-07-18 06:30:00,
2013-07-17 23:35:00,56.3,50.5,30.18,WSW,248,0.0,0.0,81,0.00,,---,0.00,VWS V14.01,2013-07-18 06:35:00,
2013-07-17 23:40:00,56.3,50.5,30.18,SSW,202,0.0,2.9,81,0.00,,---,0.00,VWS V14.01,2013-07-18 06:40:00,
2013-07-17 23:45:00,56.3,50.5,30.18,WSW,248,1.1,3.1,81,0.00,,---,0.00,VWS V14.01,2013-07-18 06:45:00,
2013-07-17 23:55:00,55.9,49.9,30.18,WSW,248,1.1,3.4,80,0.00,,---,0.00,VWS V14.01,2013-07-18 06:55:00,